Westminster, MD

10:42 PM EDT on September 20, 2017 (GMT -0400)
Carroll County Regional-Poage

Weather History for KDMW - February, 2013

Change the Weather History Date:

Saturday, February 23, 2013

  Actual Average (KTHV) Record (KTHV)
Temperature  
Mean Temperature 37 °F -  
Max Temperature 44 °F 0 °F 73 °F (2017)
Min Temperature 30 °F - -5 °F (2011)
Degree Days  
Heating Degree Days 28    
Moisture  
Dew Point 34 °F    
Average Humidity 92    
Maximum Humidity 100    
Minimum Humidity 87    
Precipitation  
Precipitation 0.00 in - - ()
Sea Level Pressure  
Sea Level Pressure 29.98 in    
Wind  
Wind Speed 4 mph (NNE)    
Max Wind Speed 10 mph    
Max Gust Speed -    
Visibility 2 miles    
Events Fog , Rain    
Averages and records for this station are not official NWS values.
T = Trace of Precipitation, MM = Missing Value Source: NWS Daily Summary

Daily Weather History Graph

Daily Weather History Graph

Search for Another Location

Airport or City:

Trip Planner

Search our weather history database for the weather conditions in past years. The results will help you decide how hot, cold, wet, or windy it might be!

Date:

Astronomy

Feb. 23, 2013 Rise Set
Actual Time 6:49 AM EST 5:53 PM EST
Civil Twilight 6:22 AM EST 6:21 PM EST
Nautical Twilight 5:50 AM EST 6:52 PM EST
Astronomical Twilight 5:19 AM EST 7:23 PM EST
Moon 4:02 PM EST (2/23) 5:10 AM EST (2/23)
Length of Visible Light 11h 58m
Length of Day
11h 04m
Waxing Gibbous, 95% of the Moon is Illuminated
Feb 23
Waxing Gibbous
Feb 25
Full
Mar 4
Last Quarter
Mar 11
New
Mar 19
First Quarter

Hourly Weather History & Observations

Time (EST) Temp. Windchill Dew Point Humidity Pressure Visibility Wind Dir Wind Speed Gust Speed Precip Events Conditions
12:10 AM 30.2 °F 21.9 °F 28.4 °F 93% 30.19 in 5.0 mi SE 9.2 mph - N/A   Overcast
12:30 AM 30.2 °F 21.3 °F 28.4 °F 93% 30.18 in 5.0 mi SE 10.4 mph - N/A   Overcast
12:50 AM 30.2 °F 22.6 °F 28.4 °F 93% 30.17 in 5.0 mi SE 8.1 mph - N/A   Overcast
1:15 AM 30.2 °F 21.9 °F 28.4 °F 93% 30.17 in 4.0 mi SE 9.2 mph - N/A   Overcast
1:35 AM 30.2 °F 21.9 °F 28.4 °F 93% 30.16 in 3.0 mi SE 9.2 mph - N/A   Overcast
1:55 AM 30.2 °F 24.3 °F 28.4 °F 93% 30.16 in 2.0 mi SE 5.8 mph - N/A   Overcast
2:15 AM 32.0 °F 28.7 °F 30.2 °F 93% 30.16 in 1.8 mi SE 3.5 mph - N/A   Overcast
2:35 AM 30.2 °F 25.4 °F 30.2 °F 100% 30.14 in 1.5 mi SE 4.6 mph - N/A   Overcast
2:55 AM 32.0 °F 27.5 °F 30.2 °F 93% 30.14 in 1.8 mi SE 4.6 mph - N/A   Overcast
3:15 AM 32.0 °F 27.5 °F 30.2 °F 93% 30.13 in 2.0 mi SE 4.6 mph - N/A   Overcast
3:35 AM 32.0 °F - 30.2 °F 93% 30.12 in 1.8 mi Calm Calm - N/A   Overcast
3:50 AM 32.0 °F 28.7 °F 30.2 °F 93% 30.11 in 2.0 mi SE 3.5 mph - N/A   Overcast
4:15 AM 32.0 °F - 30.2 °F 93% 30.10 in 2.0 mi Calm Calm - N/A   Overcast
4:35 AM 32.0 °F - 30.2 °F 93% 30.10 in 1.8 mi Calm Calm - N/A   Overcast
4:55 AM 32.0 °F - 30.2 °F 93% 30.09 in 2.0 mi Calm Calm - N/A   Overcast
5:15 AM 32.0 °F - 30.2 °F 93% 30.09 in 1.5 mi Calm Calm - N/A Rain Light Rain
5:35 AM 32.0 °F - 30.2 °F 93% 30.08 in 1.8 mi Calm Calm - N/A   Light Drizzle
5:55 AM 32.0 °F - 30.2 °F 93% 30.08 in 2.5 mi Calm Calm - N/A   Overcast
6:15 AM 33.8 °F - 30.2 °F 87% 30.07 in 1.8 mi Calm Calm - N/A   Overcast
6:35 AM 33.8 °F - 30.2 °F 87% 30.08 in 1.8 mi Calm Calm - N/A   Overcast
6:55 AM 33.8 °F - 30.2 °F 87% 30.08 in 1.5 mi Calm Calm - N/A Rain Light Rain
7:15 AM 33.8 °F - 30.2 °F 87% 30.07 in 0.5 mi Calm Calm - N/A Fog Fog
7:35 AM 32.0 °F - 30.2 °F 93% 30.07 in 0.5 mi Calm Calm - N/A   Light Drizzle
7:55 AM 33.8 °F - 30.2 °F 87% 30.06 in 0.8 mi Calm Calm - N/A   Light Drizzle
8:15 AM 33.8 °F - 30.2 °F 87% 30.06 in 0.8 mi Calm Calm - N/A   Overcast
8:35 AM 33.8 °F - 30.2 °F 87% 30.04 in 1.0 mi Calm Calm - N/A   Drizzle
8:55 AM 33.8 °F 30.8 °F 32.0 °F 93% 30.04 in 1.2 mi NE 3.5 mph - N/A   Light Drizzle
9:15 AM 33.8 °F 30.8 °F 32.0 °F 93% 30.03 in 2.0 mi ENE 3.5 mph - N/A Rain Light Rain
9:35 AM 33.8 °F - 32.0 °F 93% 30.02 in 1.5 mi Calm Calm - N/A Rain Rain
9:55 AM 33.8 °F - 32.0 °F 93% 30.01 in 2.0 mi Calm Calm - N/A Rain Light Rain
10:15 AM 35.6 °F - 33.8 °F 93% 30.01 in 1.5 mi Calm Calm - N/A   Light Drizzle
10:35 AM 35.6 °F - 33.8 °F 93% 30.00 in 1.8 mi Calm Calm - N/A   Drizzle
11:15 AM 35.6 °F 32.8 °F 35.6 °F 100% 29.99 in 1.5 mi North 3.5 mph - N/A   Light Drizzle
1:35 PM 41.0 °F 39.0 °F 39.2 °F 93% 29.93 in 7.0 mi NNE 3.5 mph - N/A   Overcast
1:55 PM 41.0 °F - 39.2 °F 93% 29.92 in 7.0 mi Calm Calm - N/A   Overcast
2:35 PM 42.8 °F - 41.0 °F 93% 29.91 in 10.0 mi Calm Calm - N/A   Overcast
2:55 PM 42.8 °F 41.1 °F 41.0 °F 93% 29.89 in 7.0 mi NNW 3.5 mph - N/A   Overcast
3:15 PM 42.8 °F - 41.0 °F 93% 29.88 in 7.0 mi Calm Calm - N/A   Overcast
3:35 PM 44.6 °F 43.1 °F 42.8 °F 93% 29.89 in 10.0 mi NNW 3.5 mph - N/A   Overcast
3:55 PM 42.8 °F 41.1 °F 41.0 °F 93% 29.88 in 4.0 mi NNW 3.5 mph - N/A   Overcast
4:15 PM 42.8 °F 41.1 °F 41.0 °F 93% 29.87 in 3.0 mi North 3.5 mph - N/A   Overcast
4:35 PM 42.8 °F 41.1 °F 41.0 °F 93% 29.86 in 1.0 mi NNE 3.5 mph - N/A   Overcast
4:55 PM 42.8 °F - 39.2 °F 87% 29.86 in 1.2 mi Calm Calm - N/A   Overcast
5:15 PM 42.8 °F - 39.2 °F 87% 29.86 in 0.8 mi Calm Calm - N/A   Overcast
5:35 PM 41.0 °F 39.0 °F 39.2 °F 93% 29.86 in 0.2 mi NNW 3.5 mph - N/A Fog Fog
5:55 PM 41.0 °F 39.0 °F 39.2 °F 93% 29.87 in 0.2 mi North 3.5 mph - N/A Fog Fog
6:15 PM 39.2 °F 35.9 °F 37.4 °F 93% 29.86 in 0.2 mi North 4.6 mph - N/A Fog Fog
6:35 PM 39.2 °F 37.0 °F 37.4 °F 93% 29.86 in 0.2 mi North 3.5 mph - N/A Fog Fog
6:55 PM 39.2 °F 37.0 °F 37.4 °F 93% 29.87 in 0.5 mi North 3.5 mph - N/A Fog Fog
7:15 PM 39.2 °F 35.9 °F 37.4 °F 93% 29.86 in 0.5 mi NNE 4.6 mph - N/A Fog Fog
7:35 PM 39.2 °F 35.9 °F 37.4 °F 93% 29.86 in 0.5 mi North 4.6 mph - N/A Fog Fog
7:55 PM 39.2 °F 37.0 °F 37.4 °F 93% 29.85 in 0.5 mi NNE 3.5 mph - N/A Fog Fog
8:15 PM 39.2 °F 37.0 °F 37.4 °F 93% 29.84 in 0.5 mi NNE 3.5 mph - N/A Fog Fog
8:35 PM 39.2 °F 37.0 °F 37.4 °F 93% 29.84 in 0.5 mi NE 3.5 mph - N/A Fog Fog
8:55 PM 39.2 °F - 37.4 °F 93% 29.83 in 0.2 mi Calm Calm - N/A Fog Fog
9:15 PM 39.2 °F 37.0 °F 37.4 °F 93% 29.83 in 0.2 mi North 3.5 mph - N/A Fog Fog
9:35 PM 39.2 °F 37.0 °F 37.4 °F 93% 29.84 in 0.2 mi NNW 3.5 mph - N/A Fog Fog
9:55 PM 39.2 °F 37.0 °F 37.4 °F 93% 29.84 in 0.2 mi North 3.5 mph - N/A Fog Fog
10:15 PM 39.2 °F 35.9 °F 37.4 °F 93% 29.83 in 0.2 mi North 4.6 mph - N/A Fog Fog
10:35 PM 39.2 °F 35.0 °F 37.4 °F 93% 29.82 in 0.2 mi North 5.8 mph - N/A Fog Fog
10:55 PM 37.4 °F 34.9 °F 37.4 °F 100% 29.82 in 0.2 mi North 3.5 mph - N/A Fog Fog
11:15 PM 37.4 °F 34.9 °F 35.6 °F 93% 29.83 in 0.2 mi NNW 3.5 mph - N/A Fog Fog
11:35 PM 37.4 °F 34.9 °F 35.6 °F 93% 29.82 in 0.2 mi NNW 3.5 mph - N/A Fog Fog
11:55 PM 37.4 °F 34.9 °F 35.6 °F 93% 29.81 in 0.2 mi NNW 3.5 mph - N/A Fog Fog